This is the latest recevied weather packets stored in our database for station/object SQ5OUZ-1. If no packets are shown the sender has not sent any weather packets the latest 10 day(s).
| Time | Temp. | Humidity | Pressure | Rain* | Wind** | Luminosity | Snow |
|---|---|---|---|---|---|---|---|
| 1777319586 | 8.89° C | 42% | 1021.4 hPa | - | - | - | - |
| 1777318683 | 9.44° C | 41% | 1021.3 hPa | - | - | - | - |
| 1777317780 | 9.44° C | 39% | 1021.3 hPa | - | - | - | - |
| 1777316876 | 10° C | 38% | 1021.5 hPa | - | - | - | - |
| 1777315973 | 10.56° C | 38% | 1021.5 hPa | - | - | - | - |
| 1777315070 | 10.56° C | 37% | 1021.4 hPa | - | - | - | - |
| 1777314167 | 10.56° C | 37% | 1021.4 hPa | - | - | - | - |
| 1777313263 | 10.56° C | 37% | 1021.2 hPa | - | - | - | - |
| 1777312360 | 11.11° C | 36% | 1021.3 hPa | - | - | - | - |
| 1777311457 | 11.11° C | 35% | 1021.3 hPa | - | - | - | - |
| 1777310554 | 11.11° C | 35% | 1021.2 hPa | - | - | - | - |
| 1777309650 | 11.67° C | 34% | 1021.2 hPa | - | - | - | - |
| 1777308156 | 11.67° C | 33% | 1021.2 hPa | - | - | - | - |
| 1777307253 | 12.22° C | 32% | 1021.1 hPa | - | - | - | - |
| 1777306349 | 12.22° C | 31% | 1021.1 hPa | - | - | - | - |
| 1777305446 | 12.78° C | 30% | 1021.1 hPa | - | - | - | - |
| 1777304543 | 12.78° C | 30% | 1021.2 hPa | - | - | - | - |
| 1777303640 | 12.78° C | 29% | 1021.2 hPa | - | - | - | - |
| 1777302736 | 13.33° C | 29% | 1021.2 hPa | - | - | - | - |
| 1777301833 | 13.89° C | 28% | 1021.1 hPa | - | - | - | - |
| 1777300930 | 14.44° C | 27% | 1021.2 hPa | - | - | - | - |
| 1777300026 | 13.33° C | 28% | 1021.2 hPa | - | - | - | - |
| 1777299123 | 13.89° C | 25% | 1021.1 hPa | - | - | - | - |
| 1777298220 | 13.89° C | 25% | 1021.1 hPa | - | - | - | - |
| 1777297317 | 13.89° C | 23% | 1021.2 hPa | - | - | - | - |
* Rain since midnight (hover to see other rain measurements)
** Current wind speed in m/s (hover to see current wind gust speed)